TAX73JC TNCM-LPPR

Flight info

Callsign TAX73JC
Flight time N/A
Altitude 35000
Route PJM DCT MNOLO M576 OBIKE/M084F350 DCT KAVAX DCT 25N059W 30N055W 35N049W 40N040W/M084F370 42N030W 42N020W DCT DETOX/N0483F370 DCT PARAV DCT ASMOV
Aircraft B77W/H-SDE1E2E3FGHIJ2J3J4J5M1RWXY/LB1D1

Departure

Time N/A
Airport Princess Juliana International Airport (TNCM)

Arrival

Time 2026-05-04 18:44
Airport Francisco de Sá Carneiro Airport (LPPR)
Time Latitude Longitude Altitude Speed Heading
2026-05-04 17:12 42.10862 -24.97096 37351 ft 515 kts 89°
2026-05-04 17:13 42.10849 -24.82635 37351 ft 515 kts 89°
2026-05-04 17:14 42.10804 -24.63341 37351 ft 515 kts 89°
2026-05-04 17:15 42.10749 -24.48926 37343 ft 515 kts 89°
2026-05-04 17:16 42.10647 -24.29621 37342 ft 516 kts 89°
2026-05-04 17:17 42.10513 -24.10261 37344 ft 516 kts 89°
2026-05-04 17:18 42.10346 -23.90964 37339 ft 517 kts 89°
2026-05-04 17:19 42.10146 -23.71600 37340 ft 518 kts 89°
2026-05-04 17:20 42.09914 -23.52196 37331 ft 518 kts 90°
2026-05-04 17:20 42.09718 -23.37621 37335 ft 519 kts 90°
2026-05-04 17:21 42.09427 -23.18166 37326 ft 520 kts 90°
2026-05-04 17:22 42.09269 -23.08438 37331 ft 520 kts 90°
2026-05-04 17:23 42.08929 -22.89000 37325 ft 521 kts 90°
2026-05-04 17:24 42.08652 -22.74367 37331 ft 521 kts 90°
2026-05-04 17:25 42.08287 -22.56471 37322 ft 522 kts 90°
2026-05-04 17:26 42.07857 -22.36919 37324 ft 523 kts 90°
2026-05-04 17:27 42.07272 -22.12453 37313 ft 523 kts 90°
2026-05-04 17:28 42.06766 -21.92874 37306 ft 523 kts 91°
2026-05-04 17:29 42.05948 -21.63606 37312 ft 523 kts 91°
2026-05-04 17:31 42.05205 -21.39106 37314 ft 525 kts 91°
2026-05-04 17:32 42.04408 -21.14521 37309 ft 526 kts 91°
2026-05-04 17:33 42.03731 -20.94820 37308 ft 527 kts 91°
2026-05-04 17:34 42.03020 -20.75126 37318 ft 528 kts 91°
2026-05-04 17:35 42.02082 -20.50439 37302 ft 529 kts 91°
2026-05-04 17:36 42.01691 -20.40553 37309 ft 529 kts 91°
2026-05-04 17:36 42.01292 -20.30668 37311 ft 530 kts 91°
2026-05-04 17:37 42.00883 -20.20763 37283 ft 530 kts 92°
2026-05-04 17:37 42.00471 -20.10944 37316 ft 530 kts 91°
2026-05-04 17:38 41.99992 -20.01052 37285 ft 531 kts 95°
2026-05-04 17:38 41.98590 -19.91284 37304 ft 532 kts 103°
2026-05-04 17:39 41.95916 -19.76779 37294 ft 534 kts 103°
2026-05-04 17:39 41.94156 -19.67074 37291 ft 534 kts 102°
2026-05-04 17:40 41.92418 -19.57375 37276 ft 535 kts 103°
2026-05-04 17:40 41.90685 -19.47724 37287 ft 535 kts 103°
2026-05-04 17:41 41.88929 -19.38006 37284 ft 536 kts 103°
2026-05-04 17:41 41.87163 -19.28295 37289 ft 536 kts 103°
2026-05-04 17:42 41.85387 -19.18583 37286 ft 536 kts 103°
2026-05-04 17:42 41.83598 -19.08853 37291 ft 537 kts 103°
2026-05-04 17:43 41.81799 -18.99118 37274 ft 538 kts 103°
2026-05-04 17:43 41.79994 -18.89397 37278 ft 538 kts 103°
2026-05-04 17:44 41.78180 -18.79678 37276 ft 538 kts 103°
2026-05-04 17:44 41.76353 -18.69944 37275 ft 538 kts 103°
2026-05-04 17:45 41.74522 -18.60232 37274 ft 538 kts 103°
2026-05-04 17:45 41.72692 -18.50576 37272 ft 538 kts 103°
2026-05-04 17:46 41.70846 -18.40884 37281 ft 538 kts 103°
2026-05-04 17:46 41.68991 -18.31190 37275 ft 538 kts 103°
2026-05-04 17:47 41.67122 -18.21475 37273 ft 539 kts 103°
2026-05-04 17:47 41.65248 -18.11778 37269 ft 539 kts 104°
2026-05-04 17:48 41.63362 -18.02074 37272 ft 540 kts 104°
2026-05-04 17:48 41.61463 -17.92343 37267 ft 541 kts 104°
2026-05-04 17:49 41.59556 -17.82624 37253 ft 541 kts 104°
2026-05-04 17:49 41.57637 -17.72891 37278 ft 541 kts 104°
2026-05-04 17:50 41.55711 -17.63165 37263 ft 542 kts 104°
2026-05-04 17:50 41.53773 -17.53432 37255 ft 543 kts 104°
2026-05-04 17:51 41.51823 -17.43681 37256 ft 543 kts 104°
2026-05-04 17:51 41.49866 -17.33946 37265 ft 544 kts 104°
2026-05-04 17:52 41.47908 -17.24251 37254 ft 545 kts 104°
2026-05-04 17:52 41.45931 -17.14506 37252 ft 545 kts 104°
2026-05-04 17:53 41.43928 -17.04684 37265 ft 545 kts 104°
2026-05-04 17:53 41.41941 -16.94986 37250 ft 546 kts 104°
2026-05-04 17:54 41.39933 -16.85228 37242 ft 547 kts 104°
2026-05-04 17:54 41.37910 -16.75445 37240 ft 547 kts 104°
2026-05-04 17:55 41.35880 -16.65676 37244 ft 547 kts 104°
2026-05-04 17:55 41.33841 -16.55909 37237 ft 548 kts 104°
2026-05-04 17:56 41.31790 -16.46129 37232 ft 549 kts 104°
2026-05-04 17:56 41.29728 -16.36345 37231 ft 549 kts 105°
2026-05-04 17:57 41.27656 -16.26555 37237 ft 550 kts 104°
2026-05-04 17:57 41.25573 -16.16758 37200 ft 551 kts 105°
2026-05-04 17:58 41.23480 -16.06962 37220 ft 551 kts 105°
2026-05-04 17:58 41.21377 -15.97166 37242 ft 551 kts 105°
2026-05-04 17:59 41.19264 -15.87366 37226 ft 553 kts 105°
2026-05-04 18:00 41.16069 -15.72638 37224 ft 553 kts 105°
2026-05-04 18:00 41.13915 -15.62833 37216 ft 553 kts 105°
2026-05-04 18:01 41.11775 -15.53025 37224 ft 554 kts 105°
2026-05-04 18:01 41.09638 -15.43268 37217 ft 555 kts 105°
2026-05-04 18:02 41.06376 -15.28534 37210 ft 556 kts 105°
2026-05-04 18:02 41.04189 -15.18709 37209 ft 556 kts 105°
2026-05-04 18:03 41.01996 -15.08892 37198 ft 556 kts 105°
2026-05-04 18:03 41.00295 -14.98934 37198 ft 554 kts 96°
2026-05-04 18:04 40.99820 -14.88799 37215 ft 551 kts 88°
2026-05-04 18:05 40.99854 -14.73553 37205 ft 553 kts 88°
2026-05-04 18:05 40.99830 -14.63380 37194 ft 553 kts 88°
2026-05-04 18:06 40.99725 -14.48077 37199 ft 554 kts 88°
2026-05-04 18:06 40.99639 -14.37857 37195 ft 555 kts 88°
2026-05-04 18:07 40.99565 -14.29366 37193 ft 555 kts 88°
2026-05-04 18:07 40.99467 -14.19085 37207 ft 555 kts 88°
2026-05-04 18:08 40.99362 -14.08872 37192 ft 555 kts 88°
2026-05-04 18:08 40.99247 -13.98644 37186 ft 556 kts 89°
2026-05-04 18:09 40.98990 -13.78192 37188 ft 556 kts 89°
2026-05-04 18:10 40.98848 -13.67956 37184 ft 556 kts 89°
2026-05-04 18:10 40.98698 -13.57788 37182 ft 556 kts 89°
2026-05-04 18:11 40.98538 -13.47568 37195 ft 556 kts 89°
2026-05-04 18:11 40.98369 -13.37334 37172 ft 556 kts 89°
2026-05-04 18:12 40.98189 -13.27018 37174 ft 557 kts 89°
2026-05-04 18:12 40.98001 -13.16761 37172 ft 558 kts 89°
2026-05-04 18:13 40.97805 -13.06550 37176 ft 559 kts 89°
2026-05-04 18:14 40.97491 -12.91087 37166 ft 561 kts 90°
2026-05-04 18:14 40.97270 -12.80771 37166 ft 561 kts 90°
2026-05-04 18:15 40.96800 -12.60121 37161 ft 562 kts 90°
2026-05-04 18:16 40.96550 -12.49784 37162 ft 562 kts 90°
2026-05-04 18:16 40.96292 -12.39443 37180 ft 562 kts 90°
2026-05-04 18:17 40.95887 -12.23928 37160 ft 562 kts 90°
2026-05-04 18:18 40.95461 -12.08437 37150 ft 562 kts 90°
2026-05-04 18:18 40.95166 -11.98097 37144 ft 562 kts 90°
2026-05-04 18:19 40.94799 -11.82676 37137 ft 560 kts 88°
2026-05-04 18:19 40.94967 -11.72368 37142 ft 561 kts 86°
2026-05-04 18:20 40.95204 -11.62037 37145 ft 562 kts 86°
2026-05-04 18:20 40.95407 -11.51692 37142 ft 563 kts 86°
2026-05-04 18:21 40.95573 -11.41325 37138 ft 563 kts 87°
2026-05-04 18:21 40.95723 -11.30963 37158 ft 564 kts 87°
2026-05-04 18:22 40.95865 -11.20597 37128 ft 557 kts 87°
2026-05-04 18:22 40.95931 -11.15522 36844 ft 549 kts 87°
2026-05-04 18:22 40.95996 -11.10461 36034 ft 549 kts 87°
2026-05-04 18:23 40.96060 -11.05416 35234 ft 549 kts 87°
2026-05-04 18:23 40.96122 -11.00354 34354 ft 552 kts 86°
2026-05-04 18:23 40.96183 -10.95260 33306 ft 555 kts 86°
2026-05-04 18:23 40.96241 -10.90137 32305 ft 557 kts 87°
2026-05-04 18:24 40.96297 -10.85005 31260 ft 559 kts 86°
2026-05-04 18:24 40.96350 -10.79860 30388 ft 558 kts 86°
2026-05-04 18:24 40.96398 -10.74756 29684 ft 551 kts 86°
2026-05-04 18:24 40.96444 -10.69714 28963 ft 544 kts 86°
2026-05-04 18:25 40.96487 -10.64740 28321 ft 536 kts 86°
2026-05-04 18:25 40.96527 -10.59840 27694 ft 530 kts 86°
2026-05-04 18:25 40.96567 -10.54998 27074 ft 523 kts 87°
2026-05-04 18:25 40.96604 -10.50212 26439 ft 518 kts 87°
2026-05-04 18:26 40.96639 -10.45476 25812 ft 512 kts 87°
2026-05-04 18:26 40.96672 -10.40777 25207 ft 507 kts 87°
2026-05-04 18:26 40.96702 -10.36141 24609 ft 502 kts 87°
2026-05-04 18:26 40.96731 -10.31549 24008 ft 497 kts 87°
2026-05-04 18:27 40.96757 -10.26999 23352 ft 492 kts 87°
2026-05-04 18:27 40.96780 -10.22499 22664 ft 487 kts 87°
2026-05-04 18:27 40.96802 -10.18047 22082 ft 481 kts 87°
2026-05-04 18:27 40.96822 -10.13643 21465 ft 475 kts 87°
2026-05-04 18:28 40.96840 -10.09297 20872 ft 470 kts 87°
2026-05-04 18:28 40.96856 -10.04990 20292 ft 465 kts 87°
2026-05-04 18:28 40.96870 -10.00734 19719 ft 461 kts 87°
2026-05-04 18:28 40.96883 -9.96519 19145 ft 456 kts 87°
2026-05-04 18:29 40.96895 -9.92334 18578 ft 453 kts 87°
2026-05-04 18:29 40.96905 -9.88183 17937 ft 449 kts 87°
2026-05-04 18:29 40.96914 -9.84075 17311 ft 445 kts 87°
2026-05-04 18:29 40.96921 -9.79997 16736 ft 441 kts 88°
2026-05-04 18:30 40.96930 -9.71954 15576 ft 433 kts 88°
2026-05-04 18:30 40.96932 -9.67983 15003 ft 430 kts 88°
2026-05-04 18:30 40.96933 -9.64046 14458 ft 426 kts 88°
2026-05-04 18:31 40.96933 -9.60147 13932 ft 422 kts 88°
2026-05-04 18:31 40.96932 -9.56285 13342 ft 418 kts 88°
2026-05-04 18:31 40.96928 -9.52472 12846 ft 412 kts 88°
2026-05-04 18:31 40.96924 -9.48713 12395 ft 405 kts 88°
2026-05-04 18:32 40.96919 -9.45023 11959 ft 397 kts 89°
2026-05-04 18:32 40.96914 -9.41430 11697 ft 384 kts 89°
2026-05-04 18:32 40.96907 -9.37889 11135 ft 385 kts 89°
2026-05-04 18:32 40.96899 -9.34334 10751 ft 388 kts 89°
2026-05-04 18:33 40.96885 -9.30765 10275 ft 387 kts 89°
2026-05-04 18:33 40.96865 -9.27227 9915 ft 380 kts 89°
2026-05-04 18:33 40.96844 -9.23761 9624 ft 374 kts 89°
2026-05-04 18:33 40.96823 -9.20325 9358 ft 374 kts 89°
2026-05-04 18:34 40.96801 -9.16866 9098 ft 377 kts 89°
2026-05-04 18:34 40.96780 -9.13392 8839 ft 378 kts 89°
2026-05-04 18:34 40.96756 -9.09923 8584 ft 375 kts 89°
2026-05-04 18:34 40.96732 -9.06477 8327 ft 374 kts 89°
2026-05-04 18:35 40.96703 -9.03048 8046 ft 372 kts 89°
2026-05-04 18:35 40.96680 -8.99624 7717 ft 372 kts 89°
2026-05-04 18:35 40.96657 -8.96203 7390 ft 371 kts 89°
2026-05-04 18:35 40.96631 -8.92793 7069 ft 370 kts 89°
2026-05-04 18:36 40.96602 -8.89413 6743 ft 366 kts 89°
2026-05-04 18:36 40.96571 -8.86066 6416 ft 362 kts 89°
2026-05-04 18:36 40.96540 -8.82749 6075 ft 359 kts 89°
2026-05-04 18:36 40.96510 -8.79490 5721 ft 344 kts 89°
2026-05-04 18:37 40.96478 -8.76396 5377 ft 332 kts 89°
2026-05-04 18:37 40.96495 -8.73375 5035 ft 322 kts 83°
2026-05-04 18:37 40.96843 -8.70521 4711 ft 316 kts 76°
2026-05-04 18:37 40.97321 -8.67684 4355 ft 303 kts 73°
2026-05-04 18:38 40.98131 -8.65291 4036 ft 269 kts 47°
2026-05-04 18:38 40.99426 -8.63837 4014 ft 230 kts 24°
2026-05-04 18:38 41.00779 -8.63041 4006 ft 199 kts 14°
2026-05-04 18:38 41.02051 -8.62549 4042 ft 185 kts
2026-05-04 18:39 41.03326 -8.62468 3721 ft 184 kts 348°
2026-05-04 18:39 41.04572 -8.62774 3548 ft 179 kts 345°
2026-05-04 18:39 41.05779 -8.63105 3408 ft 175 kts 344°
2026-05-04 18:39 41.06931 -8.63429 3250 ft 163 kts 345°
2026-05-04 18:40 41.08033 -8.63721 3140 ft 163 kts 345°
2026-05-04 18:40 41.09149 -8.64017 3015 ft 164 kts 345°
2026-05-04 18:40 41.10265 -8.64314 2814 ft 162 kts 345°
2026-05-04 18:40 41.11352 -8.64599 2590 ft 157 kts 345°
2026-05-04 18:41 41.12421 -8.64880 2402 ft 157 kts 345°
2026-05-04 18:41 41.13510 -8.65167 2215 ft 162 kts 346°
2026-05-04 18:41 41.14623 -8.65458 2000 ft 161 kts 346°
2026-05-04 18:41 41.15693 -8.65735 1779 ft 155 kts 346°
2026-05-04 18:42 41.16753 -8.66009 1579 ft 154 kts 344°
2026-05-04 18:42 41.17783 -8.66281 1373 ft 149 kts 345°
2026-05-04 18:42 41.18745 -8.66532 1166 ft 134 kts 346°
2026-05-04 18:42 41.19668 -8.66773 1015 ft 139 kts 344°
2026-05-04 18:43 41.20609 -8.67029 846 ft 138 kts 346°
2026-05-04 18:43 41.21550 -8.67277 654 ft 137 kts 348°
2026-05-04 18:43 41.22493 -8.67522 450 ft 137 kts 346°
2026-05-04 18:43 41.23441 -8.67762 262 ft 140 kts 346°
2026-05-04 18:44 41.24324 -8.67996 242 ft 114 kts 349°
2026-05-04 18:44 41.24570 -8.68061 243 ft 99 kts 349°
2026-05-04 18:44 41.25217 -8.68126 239 ft 16 kts 19°
2026-05-04 18:44 41.25288 -8.68050 240 ft 8 kts 96°
2026-05-04 18:45 41.25243 -8.68009 240 ft 9 kts 161°
2026-05-04 18:45 41.25183 -8.67986 240 ft 9 kts 166°
2026-05-04 18:45 41.25116 -8.67970 240 ft 10 kts 171°
2026-05-04 18:45 41.25044 -8.67953 240 ft 11 kts 169°
2026-05-04 18:46 41.24966 -8.67933 240 ft 12 kts 168°
2026-05-04 18:46 41.24910 -8.67918 240 ft 13 kts 167°
2026-05-04 18:46 41.24826 -8.67869 240 ft 14 kts 150°
2026-05-04 18:46 41.24721 -8.67815 240 ft 19 kts 167°
2026-05-04 18:47 41.24587 -8.67779 240 ft 20 kts 169°
2026-05-04 18:47 41.24450 -8.67744 240 ft 20 kts 169°
2026-05-04 18:47 41.24286 -8.67673 240 ft 18 kts 134°
2026-05-04 18:47 41.24210 -8.67542 240 ft 18 kts 132°
2026-05-04 18:48 41.24145 -8.67469 240 ft 18 kts 148°
2026-05-04 18:48 41.24038 -8.67419 240 ft 12 kts 167°
2026-05-04 18:48 41.23972 -8.67406 240 ft 7 kts 146°
2026-05-04 18:48 41.23942 -8.67355 240 ft 7 kts 124°
2026-05-04 18:49 41.23933 -8.67338 240 ft 2 kts 124°